"SCET";"TARGET";"ELECTRON_DENSITY";"ERROR_FLAG";"ELECTRON_DENSITY_ERROR";"FREQ_FCE";"MEASURED_VALUE";"MEASURED_ITEM";"FREQ_PLASMA";"FREQ_UPPER_HYBRID";"FREQ_R_EQUALS_ZERO";"FREQ_L_EQUALS_ZERO";"ORBIT_NUMBER";"SATURN_RADIUS";"SATURN_IAU_LONGITUDE";"SATURN_SLS4_S_LONGITUDE";"SATURN_SLS4_N_LONGITUDE";"SATURN_SLS5_S_LONGITUDE";"SATURN_SLS5_N_LONGITUDE";"SATURN_LOCAL_TIME";"SATURN_KRONOGRAPHIC_LATITUDE";"SATURN_MAGNETIC_LATITUDE";"SATURN_L";"SATURN_L_OFFSET";"SATURN_SOLAR_EQUATORIAL_X";"SATURN_SOLAR_EQUATORIAL_Y";"SATURN_SOLAR_EQUATORIAL_Z";"SATURN_ALTITUDE";"ENCELADUS_ENCOUNTER_NUMBER";"ENCELADUS_RADIUS";"ENCELADUS_COROTATIONAL_X";"ENCELADUS_COROTATIONAL_Y";"ENCELADUS_COROTATIONAL_Z";"ENCELADUS_TRUE_ANOMALY";"ENCELADUS_PERIAPSIS_TIME";"JUPITER_RADIUS";"JUPITER_SYSTEMIII_LONGITUDE";"JUPITER_MAGNETIC_LATITUDE";"JUPITER_MAGNETIC_LOCAL_TIME";"JUPITER_L";"IO_PHASE";"EARTH_RADIUS";"EARTH_MAGNETIC_LATITUDE";"EARTH_LOCAL_TIME";"EARTH_L"
"[UTC]";"[0=Saturn, 1=Enceladus, 2=Jupiter, 3=Earth]";"[cm-3]";"[0=automated, 1=manual]";"[normalized density error]";"[Hz]";"[Hz]";"[0=upper hybrid frequency, 1=plasma frequency cutoff]";"[Hz]";"[Hz]";"[Hz]";"[Hz}";"[0, A, B, C, 3, 4, ... , 292, 293]";"[Rs where 1Rs=60268km]";"[degrees]";"[degrees]";"[degrees]";"[degrees]";"[degrees]";"[hours]";"[degrees]";"[degrees where offset=2293km north]";"[Rs where 1Rs=60268km]";"[Rs where 1Rs=60268km and offset=2293km north]";"[Rs where 1Rs=60268km]";"[Rs where 1Rs=60268km]";"[Rs where 1Rs=60268km]";"[km where ellipsoid a,b=60268km and c=54364km]";"[E0, E1, E2, ... , E21, E22]";"[Renc where 1Renc=252.1km]";"[Renc where 1Renc=252.1km]";"[Renc where 1Renc=252.1km]";"[Renc where 1Renc=252.1km]";"[degrees]";"[UTC]";"[Rj where 1Rj=71492km]";"[degrees]";"[degrees using JRM09 model]";"[hours using JRM09 model]";"[Rj where 1Rj=71492km]";"[degrees]";"[Re where 1Re=6378.1366km]";"[degrees]";"[hours]";"[Re where 1Re=6378.1366km]"
2015-06-15T21:13:17.900Z;0;3.5860e+00;0;     0.212;   386.372;  17008.768; 0;  17004.379;  17008.768;  17198.662;  16812.289;217;   9.819; 277.749;;;  24.364; 112.942;   8.220;  -0.151;  -0.373;   9.819;   9.809;   5.391;  -8.206;  -0.026;;;;;;;;;;;;;;;;;;
2015-06-15T21:14:05.900Z;0;4.0460e+00;0;     0.159;   383.068;  18066.758; 0;  18062.695;  18066.758;  18255.246;  17872.178;217;   9.813; 278.167;;;  24.780; 113.351;   8.222;  -0.151;  -0.373;   9.813;   9.803;   5.393;  -8.198;  -0.026;;;;;;;;;;;;;;;;;;
2015-06-15T21:14:21.900Z;0;4.2970e+00;0;     0.264;   383.068;  18618.904; 0;  18614.963;  18618.904;  18807.482;  18424.414;217;   9.811; 278.306;;;  24.918; 113.487;   8.223;  -0.151;  -0.373;   9.811;   9.801;   5.393;  -8.195;  -0.026;;;;;;;;;;;;;;;;;;
2015-06-15T21:16:29.898Z;0;3.8370e+00;0;     0.204;   385.560;  17594.199; 0;  17589.975;  17594.199;  17783.811;  17398.250;217;   9.796; 279.420;;;  26.026; 114.572;   8.229;  -0.150;  -0.373;   9.796;   9.786;   5.397;  -8.174;  -0.026;;;;;;;;;;;;;;;;;;
2015-06-15T21:17:17.898Z;0;3.8940e+00;0;     0.203;   390.124;  17724.463; 0;  17720.170;  17724.463;  17916.305;  17526.180;217;   9.790; 279.838;;;  26.441; 114.978;   8.231;  -0.150;  -0.373;   9.790;   9.780;   5.399;  -8.166;  -0.026;;;;;;;;;;;;;;;;;;
2015-06-15T21:18:05.898Z;0;4.8790e+00;0;     0.209;   389.116;  19839.857; 0;  19836.041;  19839.857;  20031.553;  19642.438;217;   9.784; 280.256;;;  26.856; 115.383;   8.233;  -0.150;  -0.373;   9.784;   9.774;   5.400;  -8.159;  -0.026;;;;;;;;;;;;;;;;;;
2015-06-15T21:18:53.898Z;0;3.4830e+00;0;     0.206;   389.116;  16762.604; 0;  16758.086;  16762.604;  16953.773;  16564.658;217;   9.779; 280.673;;;  27.272; 115.788;   8.236;  -0.150;  -0.372;   9.779;   9.769;   5.402;  -8.151;  -0.026;;;;;;;;;;;;;;;;;;
2015-06-15T21:19:09.898Z;0;3.8540e+00;0;     0.215;   398.552;  17633.525; 0;  17629.021;  17633.525;  17829.424;  17430.871;217;   9.777; 280.812;;;  27.410; 115.922;   8.236;  -0.150;  -0.372;   9.777;   9.767;   5.402;  -8.148;  -0.026;;;;;;;;;;;;;;;;;;
2015-06-15T21:19:57.898Z;0;4.9520e+00;0;     0.216;   398.552;  19986.740; 0;  19982.766;  19986.740;  20183.035;  19784.484;217;   9.771; 281.230;;;  27.825; 116.326;   8.238;  -0.149;  -0.372;   9.771;   9.761;   5.404;  -8.140;  -0.025;;;;;;;;;;;;;;;;;;
2015-06-15T21:21:17.896Z;0;4.6090e+00;0;     0.213;   403.452;  19283.615; 0;  19279.395;  19283.615;  19482.176;  19078.723;217;   9.761; 281.926;;;  28.517; 117.011;   8.242;  -0.149;  -0.372;   9.762;   9.752;   5.406;  -8.127;  -0.025;;;;;;;;;;;;;;;;;;
2015-06-15T21:21:33.896Z;0;4.6300e+00;0;     0.168;   403.452;  19327.803; 0;  19323.592;  19327.803;  19526.371;  19122.918;217;   9.760; 282.065;;;  28.655; 117.149;   8.243;  -0.149;  -0.372;   9.760;   9.750;   5.407;  -8.125;  -0.025;;;;;;;;;;;;;;;;;;
2015-06-15T21:22:37.896Z;0;3.8530e+00;0;     0.202;   400.148;  17632.371; 0;  17627.830;  17632.371;  17829.039;  17428.891;217;   9.752; 282.622;;;  29.209; 117.699;   8.246;  -0.149;  -0.372;   9.752;   9.742;   5.409;  -8.114;  -0.025;;;;;;;;;;;;;;;;;;
2015-06-15T21:23:25.896Z;0;4.6190e+00;0;     0.205;   405.356;  19302.967; 0;  19298.711;  19302.967;  19502.453;  19097.096;217;   9.746; 283.039;;;  29.624; 118.113;   8.248;  -0.149;  -0.372;   9.746;   9.736;   5.410;  -8.106;  -0.025;;;;;;;;;;;;;;;;;;
2015-06-15T21:23:57.896Z;0;4.5920e+00;0;     0.186;   405.356;  19248.184; 0;  19243.914;  19248.184;  19447.660;  19042.305;217;   9.742; 283.318;;;  29.901; 118.389;   8.249;  -0.148;  -0.372;   9.742;   9.733;   5.411;  -8.101;  -0.025;;;;;;;;;;;;;;;;;;
2015-06-15T21:24:13.896Z;0;4.5860e+00;0;     0.174;   401.828;  19234.363; 0;  19230.166;  19234.363;  19432.129;  19030.301;217;   9.740; 283.457;;;  30.039; 118.527;   8.250;  -0.148;  -0.372;   9.741;   9.731;   5.412;  -8.098;  -0.025;;;;;;;;;;;;;;;;;;
2015-06-15T21:25:49.895Z;0;4.7060e+00;0;     0.225;   398.636;  19485.611; 0;  19481.533;  19485.611;  19681.871;  19283.234;217;   9.729; 284.291;;;  30.869; 119.357;   8.255;  -0.148;  -0.372;   9.729;   9.719;   5.415;  -8.083;  -0.025;;;;;;;;;;;;;;;;;;
2015-06-15T21:26:05.895Z;0;4.7060e+00;0;     0.229;   401.324;  19483.883; 0;  19479.750;  19483.883;  19681.445;  19280.121;217;   9.727; 284.430;;;  31.007; 119.495;   8.255;  -0.148;  -0.372;   9.727;   9.717;   5.415;  -8.080;  -0.025;;;;;;;;;;;;;;;;;;
2015-06-15T21:27:09.895Z;0;4.6410e+00;0;     0.210;   401.884;  19349.465; 0;  19345.291;  19349.465;  19547.277;  19145.393;217;   9.719; 284.987;;;  31.560; 120.050;   8.258;  -0.148;  -0.372;   9.720;   9.710;   5.417;  -8.069;  -0.025;;;;;;;;;;;;;;;;;;
2015-06-15T21:28:29.895Z;0;4.6090e+00;0;     0.213;   401.268;  19283.615; 0;  19279.439;  19283.615;  19481.117;  19079.850;217;   9.710; 285.682;;;  32.252; 120.745;   8.262;  -0.147;  -0.372;   9.710;   9.700;   5.420;  -8.056;  -0.025;;;;;;;;;;;;;;;;;;
2015-06-15T21:29:49.895Z;0;4.8290e+00;0;     0.224;   404.628;  19738.482; 0;  19734.334;  19738.482;  19937.686;  19533.059;217;   9.700; 286.377;;;  32.943; 121.442;   8.266;  -0.147;  -0.372;   9.700;   9.691;   5.422;  -8.043;  -0.025;;;;;;;;;;;;;;;;;;
2015-06-15T21:32:45.893Z;0;3.9510e+00;0;     0.219;   414.876;  17854.908; 0;  17850.088;  17854.908;  18058.730;  17643.855;217;   9.679; 287.907;;;  34.463; 122.963;   8.274;  -0.146;  -0.372;   9.679;   9.670;   5.428;  -8.014;  -0.025;;;;;;;;;;;;;;;;;;
2015-06-15T21:34:37.893Z;0;5.0460e+00;0;     0.210;   415.324;  20175.359; 0;  20171.084;  20175.359;  20379.814;  19964.490;217;   9.666; 288.879;;;  35.430; 123.930;   8.279;  -0.146;  -0.371;   9.666;   9.656;   5.431;  -7.996;  -0.025;;;;;;;;;;;;;;;;;;
2015-06-15T21:34:53.893Z;0;5.4090e+00;0;     0.204;   415.324;  20888.389; 0;  20884.260;  20888.389;  21092.953;  20677.629;217;   9.664; 289.018;;;  35.568; 124.068;   8.280;  -0.146;  -0.371;   9.664;   9.654;   5.432;  -7.993;  -0.025;;;;;;;;;;;;;;;;;;
2015-06-15T21:35:25.893Z;0;4.5820e+00;0;     0.202;   414.288;  19226.893; 0;  19222.428;  19226.893;  19430.689;  19016.400;217;   9.660; 289.296;;;  35.845; 124.345;   8.281;  -0.146;  -0.371;   9.660;   9.650;   5.432;  -7.988;  -0.025;;;;;;;;;;;;;;;;;;
2015-06-15T21:35:41.893Z;0;5.0600e+00;0;     0.186;   414.288;  20203.838; 0;  20199.590;  20203.838;  20407.797;  19993.508;217;   9.658; 289.435;;;  35.983; 124.483;   8.282;  -0.146;  -0.371;   9.658;   9.648;   5.433;  -7.985;  -0.025;;;;;;;;;;;;;;;;;;
2015-06-15T21:36:13.891Z;0;4.6410e+00;0;     0.191;   416.696;  19350.578; 0;  19346.092;  19350.578;  19555.561;  19138.865;217;   9.654; 289.713;;;  36.259; 124.759;   8.284;  -0.146;  -0.371;   9.654;   9.645;   5.434;  -7.980;  -0.025;;;;;;;;;;;;;;;;;;
2015-06-15T21:39:09.891Z;0;5.3160e+00;0;     0.147;   421.512;  20708.693; 0;  20704.402;  20708.693;  20916.232;  20494.721;217;   9.633; 291.241;;;  37.778; 126.278;   8.292;  -0.145;  -0.371;   9.633;   9.624;   5.439;  -7.951;  -0.024;;;;;;;;;;;;;;;;;;
2015-06-15T21:39:25.891Z;0;5.6750e+00;0;     0.187;   421.512;  21396.150; 0;  21391.998;  21396.150;  21603.793;  21182.279;217;   9.631; 291.380;;;  37.916; 126.416;   8.292;  -0.145;  -0.371;   9.632;   9.622;   5.440;  -7.948;  -0.024;;;;;;;;;;;;;;;;;;
2015-06-15T21:41:49.889Z;0;5.4030e+00;0;     0.200;   423.808;  20877.926; 0;  20873.623;  20877.926;  21086.604;  20662.795;217;   9.614; 292.630;;;  39.170; 127.648;   8.299;  -0.144;  -0.371;   9.614;   9.604;   5.444;  -7.924;  -0.024;;;;;;;;;;;;;;;;;;
2015-06-15T21:42:05.889Z;0;4.3920e+00;0;     0.231;   422.828;  18823.254; 0;  18818.504;  18823.254;  19031.105;  18608.277;217;   9.612; 292.768;;;  39.309; 127.784;   8.300;  -0.144;  -0.371;   9.612;   9.603;   5.445;  -7.921;  -0.024;;;;;;;;;;;;;;;;;;
2015-06-15T21:42:21.889Z;0;5.5060e+00;0;     0.198;   422.828;  21075.904; 0;  21071.662;  21075.904;  21284.137;  20861.309;217;   9.610; 292.907;;;  39.449; 127.920;   8.301;  -0.144;  -0.371;   9.610;   9.601;   5.445;  -7.919;  -0.024;;;;;;;;;;;;;;;;;;
2015-06-15T21:44:29.889Z;0;5.6830e+00;0;     0.198;   429.212;  21411.242; 0;  21406.939;  21411.242;  21622.621;  21193.410;217;   9.595; 294.018;;;  40.571; 129.006;   8.307;  -0.144;  -0.371;   9.595;   9.585;   5.449;  -7.897;  -0.024;;;;;;;;;;;;;;;;;;
2015-06-15T21:44:45.889Z;0;5.5770e+00;0;     0.206;   429.212;  21211.414; 0;  21207.070;  21211.414;  21422.764;  20993.551;217;   9.593; 294.156;;;  40.712; 129.142;   8.308;  -0.144;  -0.371;   9.593;   9.583;   5.449;  -7.895;  -0.024;;;;;;;;;;;;;;;;;;
2015-06-15T21:45:01.889Z;0;5.6230e+00;0;     0.196;   428.008;  21297.771; 0;  21293.471;  21297.771;  21508.549;  21080.541;217;   9.591; 294.295;;;  40.853; 129.277;   8.308;  -0.144;  -0.371;   9.591;   9.582;   5.450;  -7.892;  -0.024;;;;;;;;;;;;;;;;;;
2015-06-15T21:45:17.889Z;0;5.1750e+00;0;     0.187;   428.008;  20432.189; 0;  20427.707;  20432.189;  20642.830;  20214.822;217;   9.589; 294.434;;;  40.993; 129.412;   8.309;  -0.144;  -0.371;   9.589;   9.580;   5.450;  -7.889;  -0.024;;;;;;;;;;;;;;;;;;
2015-06-15T21:45:33.889Z;0;5.0590e+00;0;     0.213;   428.008;  20202.717; 0;  20198.182;  20202.717;  20413.320;  19985.312;217;   9.587; 294.573;;;  41.134; 129.547;   8.310;  -0.143;  -0.371;   9.587;   9.578;   5.451;  -7.887;  -0.024;;;;;;;;;;;;;;;;;;
2015-06-15T21:46:05.889Z;0;5.1470e+00;0;     0.211;   430.528;  20378.012; 0;  20373.463;  20378.012;  20589.865;  20159.336;217;   9.584; 294.850;;;  41.416; 129.818;   8.311;  -0.143;  -0.371;   9.584;   9.574;   5.452;  -7.881;  -0.024;;;;;;;;;;;;;;;;;;
2015-06-15T21:46:21.887Z;0;5.0410e+00;0;     0.196;   430.528;  20165.936; 0;  20161.340;  20165.936;  20377.752;  19947.225;217;   9.582; 294.989;;;  41.557; 129.952;   8.312;  -0.143;  -0.371;   9.582;   9.572;   5.452;  -7.879;  -0.024;;;;;;;;;;;;;;;;;;
2015-06-15T21:46:37.887Z;0;5.1790e+00;0;     0.203;   430.528;  20440.414; 0;  20435.879;  20440.414;  20652.277;  20221.750;217;   9.580; 295.128;;;  41.698; 130.087;   8.313;  -0.143;  -0.371;   9.580;   9.570;   5.453;  -7.876;  -0.024;;;;;;;;;;;;;;;;;;
2015-06-15T21:47:09.887Z;0;5.5720e+00;0;     0.203;   432.264;  21200.930; 0;  21196.523;  21200.930;  21413.756;  20981.492;217;   9.576; 295.405;;;  41.980; 130.357;   8.314;  -0.143;  -0.371;   9.576;   9.566;   5.454;  -7.871;  -0.024;;;;;;;;;;;;;;;;;;
2015-06-15T21:47:57.887Z;0;4.7420e+00;0;     0.233;   432.264;  19560.396; 0;  19555.619;  19560.396;  19772.945;  19340.682;217;   9.570; 295.822;;;  42.404; 130.761;   8.317;  -0.143;  -0.371;   9.570;   9.560;   5.455;  -7.863;  -0.024;;;;;;;;;;;;;;;;;;
2015-06-15T21:48:29.887Z;0;5.3010e+00;0;     0.208;   437.304;  20680.109; 0;  20675.484;  20680.109;  20895.293;  20457.990;217;   9.566; 296.099;;;  42.687; 131.029;   8.318;  -0.143;  -0.371;   9.566;   9.557;   5.456;  -7.858;  -0.024;;;;;;;;;;;;;;;;;;
2015-06-15T21:49:01.887Z;0;5.5940e+00;0;     0.210;   436.632;  21243.297; 0;  21238.809;  21243.297;  21458.248;  21021.615;217;   9.562; 296.376;;;  42.970; 131.298;   8.320;  -0.143;  -0.371;   9.562;   9.553;   5.457;  -7.852;  -0.024;;;;;;;;;;;;;;;;;;
2015-06-15T21:49:17.887Z;0;5.4540e+00;0;     0.182;   436.632;  20976.139; 0;  20971.594;  20976.139;  21191.047;  20754.414;217;   9.561; 296.515;;;  43.112; 131.432;   8.320;  -0.143;  -0.371;   9.561;   9.551;   5.457;  -7.850;  -0.024;;;;;;;;;;;;;;;;;;
2015-06-15T21:49:49.887Z;0;5.6820e+00;0;     0.175;   436.632;  21410.854; 0;  21406.400;  21410.854;  21625.830;  21189.197;217;   9.557; 296.793;;;  43.395; 131.700;   8.322;  -0.142;  -0.371;   9.557;   9.547;   5.458;  -7.844;  -0.024;;;;;;;;;;;;;;;;;;
2015-06-15T21:51:09.887Z;0;5.0830e+00;0;     0.205;   438.564;  20250.258; 0;  20245.508;  20250.258;  20465.979;  20027.414;217;   9.547; 297.486;;;  44.092; 132.382;   8.326;  -0.142;  -0.370;   9.547;   9.537;   5.461;  -7.831;  -0.024;;;;;;;;;;;;;;;;;;
2015-06-15T21:51:41.885Z;0;5.1380e+00;0;     0.215;   438.564;  20360.703; 0;  20355.979;  20360.703;  20576.441;  20137.879;217;   9.543; 297.763;;;  44.370; 132.656;   8.327;  -0.142;  -0.370;   9.543;   9.534;   5.462;  -7.826;  -0.024;;;;;;;;;;;;;;;;;;
2015-06-15T21:53:33.885Z;0;4.6370e+00;0;     0.197;   439.908;  19342.045; 0;  19337.041;  19342.045;  19558.246;  19118.338;217;   9.530; 298.734;;;  45.339; 133.616;   8.333;  -0.142;  -0.370;   9.530;   9.520;   5.465;  -7.807;  -0.024;;;;;;;;;;;;;;;;;;
2015-06-15T21:54:37.885Z;0;5.5670e+00;0;     0.211;   440.552;  21192.426; 0;  21187.846;  21192.426;  21409.268;  20968.715;217;   9.522; 299.288;;;  45.891; 134.167;   8.336;  -0.141;  -0.370;   9.522;   9.512;   5.467;  -7.796;  -0.023;;;;;;;;;;;;;;;;;;
2015-06-15T21:54:53.885Z;0;5.5720e+00;0;     0.211;   440.552;  21201.316; 0;  21196.738;  21201.316;  21418.160;  20977.607;217;   9.520; 299.427;;;  46.029; 134.304;   8.337;  -0.141;  -0.370;   9.520;   9.511;   5.467;  -7.793;  -0.023;;;;;;;;;;;;;;;;;;
2015-06-15T21:55:25.885Z;0;5.7670e+00;0;     0.146;   451.276;  21570.732; 0;  21566.012;  21570.732;  21792.830;  21341.555;217;   9.516; 299.704;;;  46.305; 134.580;   8.338;  -0.141;  -0.370;   9.516;   9.507;   5.468;  -7.788;  -0.023;;;;;;;;;;;;;;;;;;
2015-06-15T21:55:41.885Z;0;6.0570e+00;0;     0.215;   451.276;  22104.807; 0;  22100.199;  22104.807;  22326.990;  21875.713;217;   9.514; 299.843;;;  46.442; 134.718;   8.339;  -0.141;  -0.370;   9.514;   9.505;   5.469;  -7.785;  -0.023;;;;;;;;;;;;;;;;;;
2015-06-15T21:55:57.885Z;0;5.6860e+00;0;     0.192;   451.276;  21418.512; 0;  21413.758;  21418.512;  21640.584;  21189.309;217;   9.512; 299.981;;;  46.580; 134.856;   8.340;  -0.141;  -0.370;   9.513;   9.503;   5.469;  -7.783;  -0.023;;;;;;;;;;;;;;;;;;
2015-06-15T21:56:29.885Z;0;5.5830e+00;0;     0.205;   450.604;  21222.723; 0;  21217.938;  21222.723;  21444.438;  20993.832;217;   9.509; 300.259;;;  46.855; 135.132;   8.341;  -0.141;  -0.370;   9.509;   9.499;   5.470;  -7.777;  -0.023;;;;;;;;;;;;;;;;;;
2015-06-15T21:56:45.883Z;0;5.7170e+00;0;     0.205;   450.604;  21476.797; 0;  21472.068;  21476.797;  21698.553;  21247.949;217;   9.507; 300.397;;;  46.992; 135.270;   8.342;  -0.141;  -0.370;   9.507;   9.497;   5.470;  -7.775;  -0.023;;;;;;;;;;;;;;;;;;
2015-06-15T21:57:01.883Z;0;5.6170e+00;0;     0.184;   449.708;  21287.758; 0;  21283.008;  21287.758;  21509.049;  21059.342;217;   9.505; 300.536;;;  47.129; 135.409;   8.343;  -0.141;  -0.370;   9.505;   9.495;   5.471;  -7.772;  -0.023;;;;;;;;;;;;;;;;;;
2015-06-15T21:57:49.883Z;0;5.8220e+00;0;     0.190;   449.708;  21671.721; 0;  21667.055;  21671.721;  21893.074;  21443.367;217;   9.499; 300.951;;;  47.541; 135.824;   8.345;  -0.141;  -0.370;   9.499;   9.489;   5.472;  -7.764;  -0.023;;;;;;;;;;;;;;;;;;
2015-06-15T21:58:37.883Z;0;5.6120e+00;0;     0.204;   450.100;  21277.139; 0;  21272.377;  21277.139;  21498.617;  21048.518;217;   9.493; 301.367;;;  47.952; 136.240;   8.347;  -0.140;  -0.370;   9.493;   9.484;   5.474;  -7.756;  -0.023;;;;;;;;;;;;;;;;;;
2015-06-15T21:59:41.883Z;0;5.4520e+00;0;     0.197;   450.212;  20972.826; 0;  20967.994;  20972.826;  21194.309;  20744.096;217;   9.486; 301.921;;;  48.498; 136.795;   8.350;  -0.140;  -0.370;   9.486;   9.476;   5.476;  -7.745;  -0.023;;;;;;;;;;;;;;;;;;
2015-06-15T22:00:29.883Z;0;5.7170e+00;0;     0.205;   454.356;  21476.795; 0;  21471.988;  21476.795;  21700.367;  21246.012;217;   9.480; 302.337;;;  48.910; 137.210;   8.353;  -0.140;  -0.370;   9.480;   9.470;   5.477;  -7.737;  -0.023;;;;;;;;;;;;;;;;;;
2015-06-15T22:01:17.883Z;0;5.6050e+00;0;     0.204;   455.336;  21264.570; 0;  21259.695;  21264.570;  21488.582;  21033.246;217;   9.474; 302.752;;;  49.323; 137.623;   8.355;  -0.140;  -0.370;   9.474;   9.464;   5.478;  -7.729;  -0.023;;;;;;;;;;;;;;;;;;
2015-06-15T22:01:33.883Z;0;5.6860e+00;0;     0.192;   455.336;  21418.512; 0;  21413.672;  21418.512;  21642.549;  21187.213;217;   9.472; 302.891;;;  49.460; 137.760;   8.356;  -0.140;  -0.370;   9.472;   9.463;   5.479;  -7.727;  -0.023;;;;;;;;;;;;;;;;;;
2015-06-15T22:01:49.883Z;0;5.6360e+00;0;     0.196;   455.336;  21323.305; 0;  21318.443;  21323.305;  21547.326;  21091.990;217;   9.470; 303.029;;;  49.598; 137.898;   8.357;  -0.140;  -0.370;   9.470;   9.461;   5.479;  -7.724;  -0.023;;;;;;;;;;;;;;;;;;
2015-06-15T22:02:05.881Z;0;5.6530e+00;0;     0.207;   451.612;  21355.041; 0;  21350.266;  21355.041;  21577.266;  21125.652;217;   9.468; 303.168;;;  49.736; 138.036;   8.357;  -0.140;  -0.370;   9.468;   9.459;   5.480;  -7.721;  -0.023;;;;;;;;;;;;;;;;;;
2015-06-15T22:02:21.881Z;0;5.5940e+00;0;     0.176;   451.612;  21243.717; 0;  21238.916;  21243.717;  21465.922;  21014.311;217;   9.466; 303.306;;;  49.874; 138.174;   8.358;  -0.139;  -0.370;   9.466;   9.457;   5.480;  -7.718;  -0.023;;;;;;;;;;;;;;;;;;
2015-06-15T22:03:25.881Z;0;5.6280e+00;0;     0.196;   456.120;  21308.877; 0;  21303.994;  21308.877;  21533.275;  21077.156;217;   9.459; 303.860;;;  50.424; 138.724;   8.361;  -0.139;  -0.370;   9.459;   9.449;   5.482;  -7.708;  -0.023;;;;;;;;;;;;;;;;;;
2015-06-15T22:04:45.881Z;0;5.9100e+00;0;     0.228;   458.500;  21835.010; 0;  21830.195;  21835.010;  22060.648;  21602.148;217;   9.449; 304.552;;;  51.112; 139.412;   8.365;  -0.139;  -0.370;   9.449;   9.439;   5.484;  -7.694;  -0.023;;;;;;;;;;;;;;;;;;
2015-06-15T22:05:01.881Z;0;5.1600e+00;0;     0.193;   461.020;  20403.672; 0;  20398.463;  20403.672;  20630.275;  20169.256;217;   9.447; 304.691;;;  51.250; 139.550;   8.366;  -0.139;  -0.369;   9.447;   9.438;   5.485;  -7.692;  -0.023;;;;;;;;;;;;;;;;;;
2015-06-15T22:05:49.881Z;0;5.6250e+00;0;     0.199;   461.020;  21302.766; 0;  21297.777;  21302.766;  21529.533;  21068.514;217;   9.441; 305.106;;;  51.663; 139.963;   8.368;  -0.139;  -0.369;   9.441;   9.432;   5.486;  -7.684;  -0.023;;;;;;;;;;;;;;;;;;
2015-06-15T22:06:05.881Z;0;5.6520e+00;0;     0.177;   456.568;  21353.607; 0;  21348.727;  21353.607;  21578.230;  21121.662;217;   9.439; 305.245;;;  51.801; 140.101;   8.369;  -0.139;  -0.369;   9.439;   9.430;   5.486;  -7.681;  -0.023;;;;;;;;;;;;;;;;;;
2015-06-15T22:06:21.881Z;0;5.6150e+00;0;     0.192;   456.568;  21283.324; 0;  21278.426;  21283.324;  21507.936;  21051.367;217;   9.437; 305.383;;;  51.938; 140.238;   8.370;  -0.138;  -0.369;   9.438;   9.428;   5.487;  -7.678;  -0.023;;;;;;;;;;;;;;;;;;
2015-06-15T22:06:37.881Z;0;5.9370e+00;0;     0.211;   456.568;  21884.869; 0;  21880.105;  21884.869;  22109.580;  21653.014;217;   9.436; 305.521;;;  52.076; 140.376;   8.371;  -0.138;  -0.369;   9.436;   9.426;   5.487;  -7.675;  -0.023;;;;;;;;;;;;;;;;;;
2015-06-15T22:06:53.881Z;0;6.1210e+00;0;     0.195;   456.568;  22221.197; 0;  22216.506;  22221.197;  22445.963;  21989.395;217;   9.434; 305.660;;;  52.213; 140.513;   8.371;  -0.138;  -0.369;   9.434;   9.424;   5.488;  -7.673;  -0.023;;;;;;;;;;;;;;;;;;
2015-06-15T22:09:33.879Z;0;5.5330e+00;0;     0.161;   461.356;  21127.627; 0;  21122.590;  21127.627;  21354.527;  20893.170;217;   9.414; 307.044;;;  53.589; 141.889;   8.379;  -0.138;  -0.369;   9.414;   9.405;   5.492;  -7.646;  -0.023;;;;;;;;;;;;;;;;;;
2015-06-15T22:09:49.879Z;0;5.8220e+00;0;     0.219;   461.356;  21672.527; 0;  21667.615;  21672.527;  21899.521;  21438.166;217;   9.412; 307.182;;;  53.727; 142.027;   8.380;  -0.138;  -0.369;   9.412;   9.403;   5.493;  -7.643;  -0.023;;;;;;;;;;;;;;;;;;
2015-06-15T22:11:25.879Z;0;5.9860e+00;0;     0.204;   469.756;  21975.066; 0;  21970.045;  21975.066;  22206.178;  21736.422;217;   9.401; 308.012;;;  54.552; 142.852;   8.385;  -0.137;  -0.369;   9.401;   9.391;   5.496;  -7.627;  -0.023;;;;;;;;;;;;;;;;;;
2015-06-15T22:11:41.879Z;0;6.0100e+00;0;     0.185;   469.756;  22020.594; 0;  22015.582;  22020.594;  22251.713;  21781.957;217;   9.399; 308.150;;;  54.689; 142.989;   8.386;  -0.137;  -0.369;   9.399;   9.389;   5.496;  -7.624;  -0.022;;;;;;;;;;;;;;;;;;
2015-06-15T22:11:57.879Z;0;6.1360e+00;0;     0.207;   469.756;  22248.918; 0;  22243.959;  22248.918;  22480.076;  22010.320;217;   9.397; 308.289;;;  54.827; 143.127;   8.386;  -0.137;  -0.369;   9.397;   9.388;   5.496;  -7.622;  -0.022;;;;;;;;;;;;;;;;;;
2015-06-15T22:12:13.879Z;0;5.9600e+00;0;     0.195;   461.272;  21928.213; 0;  21923.361;  21928.213;  22155.209;  21693.938;217;   9.395; 308.427;;;  54.964; 143.264;   8.387;  -0.137;  -0.369;   9.395;   9.386;   5.497;  -7.619;  -0.022;;;;;;;;;;;;;;;;;;
2015-06-15T22:12:45.877Z;0;5.9140e+00;0;     0.211;   461.272;  21843.604; 0;  21838.732;  21843.604;  22070.586;  21609.314;217;   9.391; 308.703;;;  55.239; 143.539;   8.389;  -0.137;  -0.369;   9.391;   9.382;   5.498;  -7.613;  -0.022;;;;;;;;;;;;;;;;;;
2015-06-15T22:14:05.877Z;0;6.1370e+00;0;     0.189;   468.888;  22250.211; 0;  22245.270;  22250.211;  22480.949;  22012.061;217;   9.382; 309.395;;;  55.927; 144.227;   8.393;  -0.137;  -0.369;   9.382;   9.372;   5.500;  -7.600;  -0.022;;;;;;;;;;;;;;;;;;
2015-06-15T22:14:21.877Z;0;6.0620e+00;0;     0.092;   468.888;  22115.203; 0;  22110.232;  22115.203;  22345.918;  21877.031;217;   9.380; 309.533;;;  56.064; 144.364;   8.394;  -0.137;  -0.369;   9.380;   9.370;   5.500;  -7.597;  -0.022;;;;;;;;;;;;;;;;;;
2015-06-15T22:14:37.877Z;0;6.0310e+00;0;     0.105;   468.888;  22058.070; 0;  22053.086;  22058.070;  22288.775;  21819.889;217;   9.378; 309.671;;;  56.202; 144.502;   8.394;  -0.136;  -0.369;   9.378;   9.368;   5.501;  -7.595;  -0.022;;;;;;;;;;;;;;;;;;
2015-06-15T22:14:53.877Z;0;6.1290e+00;0;     0.181;   468.888;  22236.801; 0;  22231.857;  22236.801;  22467.537;  21998.648;217;   9.376; 309.810;;;  56.339; 144.639;   8.395;  -0.136;  -0.369;   9.376;   9.366;   5.501;  -7.592;  -0.022;;;;;;;;;;;;;;;;;;
2015-06-15T22:15:09.877Z;0;5.7020e+00;0;     0.208;   471.436;  21449.162; 0;  21443.980;  21449.162;  21680.994;  21209.559;217;   9.374; 309.948;;;  56.476; 144.776;   8.396;  -0.136;  -0.369;   9.374;   9.364;   5.502;  -7.589;  -0.022;;;;;;;;;;;;;;;;;;